千帆星座-158(QIANFAN-158)

导读

QIANFAN-158(NORAD编号69117)是千帆星座中的一颗近地轨道卫星。千帆星座是由中国企业规划的低轨卫星互联网星座,计划部署规模庞大的卫星群,提供全球通信等服务。根据2025年天文学观测研究,该系列卫星平均视星等约5.76,部分卫星出现翻滚失控现象,亮度波动明显。其持续增加的规模引发天文学界关注,若不采取亮度抑制措施,将对光学天文观测和夜空美学观赏产生不利影响。

Basic Information
目录编号:
69117
目录名称:
QIANFAN-158
国际标识:
2026-108P
轨道中心:
EARTH
卫星名称:
千帆星座-158
卫星全名:
千帆星座-158(QIANFAN-158)
卫星状态:
在轨 (已飞行117 天)
发射日期:
2026-05-17 UTC
国别 :
中国 (CN)
星等 :
--
This satellite is enrolled in the Space Conjunction Data Service (SCDS) and the current flight risk assessment level is: No High Risk
Orbit Information
数据来源 国际轨道数据 AOE轨道数据
星历时间 2026-09-11T13:59:52+0800
8小时前
查看轨道信息
2026-09-07T05:00:00+0800
4天前
查看轨道信息
半长轴 7446.595km 7446.597km
偏心率 0.0001842 0.0001934
轨道倾角 89.018° 89.018°
近地点辐角 103.387° 103.092°
升交点赤经 13.392° 13.827°
平近点角 256.749° 231.385°
近地点 1067.086km 1067.019km
远地点 1069.83km 1069.901km
周期 106.585分钟 106.585分钟
每日圈数 13.510339 13.510331
Detailed Information
卫星平台:
158
覆盖范围:
全球
运营商:
上海垣信卫星科技有限公司
运营商所在国:
中国
使用方式:
暂无
Satellite Introduction
千帆星座,也被称为“G60星链”计划,是中国版“星链”的重要组成部分,旨在打造一个由1.4万多颗低轨宽频多媒体卫星构成的庞大星座。千帆星座计划由上海垣信卫星科技有限公司负责实施,于2023年启动建设。该项目是我国第二个低轨卫星大星座,旨在通过构建庞大的卫星网络,为全球用户提供高质量的通信和宽带互联网服务。
2D Orbit Map
3D Orbit Map
Orbit Altitude Analysis Chart
Orbit Inclination Analysis Chart
Orbit Comprehensive Analysis Chart
View Comprehensive Chart
Conjunction Data List
Event ID Objects TCA Miss Dist (km) Collision Risk Probability Collision Risk Index (CRI) Action
CDM_260905-133102-145206-911723
2026-09-05T
13:31:39+0000
1.914 km
极远距离
2.759288E-6 低风险 0.44
CDM_260910-203104-221006-911723
2026-09-10T
20:31:28+0000
2.897 km
极远距离
1.377624E-6 低风险 0.38
Miss Distance Evolution Trend with All Objects
Collision Probability Evolution Trend with All Objects